Tracking 18784 objects as of 17-August-2017
HD Live streaming from Space Station
objects crossing your sky now

SILKROAD 1

Track SILKROAD 1 now!
10-day predictions


NORAD ID: 42903
Int'l Code: 2017-021F
Perigee: 392.6 km
Apogee: 401.9 km
Inclination: 42.8 °
Period: 92.4 minutes
Semi major axis: 6768 km
RCS: Unknown
Launch date: April 20, 2017
Source: People's Republic of China (PRC)
Launch site: Wenchang Satellite Launch Center (WSC)
Your satellite tracking list
Your tracking list is empty





NASA's NSSDC Master Catalog

Two Line Element Set (TLE):
1 42903U 17021F   17229.31731619  .00007991  00000-0  10385-3 0  9997
2 42903  42.7821 351.7376 0006824 317.8693 128.1571 15.59151152  2308
Source of the keplerian elements: AFSPC